sat.trackr.live / text

‹ back to catalog

STARLINK-36216

NORAD 67217 · 2025-304AB

PAYLOAD ACTIVE UNKNOWN

§ Identity

Operator
Country
US
Launch date
2025-12-17
Launch site
AFWTR
Launch vehicle
Mass (kg)
RCS (m²)

Purposes: comms

External: N2YO · Heavens-Above · Gunter

§ Orbital elements

Epoch: 2026-05-24T22:15:44.506080Z

Period
96.11 min
Inclination
70.0021°
Eccentricity
0.0002624
Mean motion
14.98346633 rev/d
Perigee alt
570.2 km
Apogee alt
573.8 km
Semi-major
6,950.1 km
B*
3.6853e-4
RAAN
342.2574°
Arg perigee
266.1103°
Mean anomaly
93.9756°
Rev number
2,529

§ Raw data

STARLINK-362161 67217U 25304AB  26144.92759845  .00004309  00000+0  36853-3 0  99962 67217  70.0021 342.2574 0002624 266.1103  93.9756 14.98346633 25299

JSON: /api/v1/satellites/67217 · /tle

For live sub-satellite position, see the globe view (requires WebGL).

§ Visibility from observer

Set your observer location to see the next 7 days of passes ≥ 10°. The values pass through the URL so the page stays shareable.

No JS? Fill the form by hand. The geolocation button needs JavaScript.